Home > Weather > Iquitos > Past weeks

Flag for Peru Weather for the Past 2 Weeks in Iquitos, Loreto, Peru

Now
75 °F

Mostly cloudy.


Feels Like: 74 °F
Forecast: 73 / 76 °F
Wind: No wind

Location: Iquitos Airport

Current Time: Feb 11, 2016 at 9:13:10 AM

Latest Report: Feb 11, 2016 at 8:00 AM


Visibility: N/A

Pressure: 29.98 "Hg

Humidity: 94%

Dew point: 73 °F

Location of IquitosLocation

Historic Weather in Iquitos — Graph

°F

Iquitos Temperature Yesterday

Maximum temperature yesterday: 88 °F (at 4:00 PM)
Minimum temperature yesterday: 73 °F (at 12:00 AM)
Average temperature yesterday: 78 °F

High & Low Weather Summary for the Past Weeks

 TemperatureHumidityPressure
High97 °F (Jan 27, 3:00 PM)100% (Jan 31, 1:00 AM)29.98 "Hg (Jan 31, 1:00 AM)
Low73 °F (Feb 4, 5:00 AM)44% (Jan 27, 3:00 PM)29.65 "Hg (Feb 4, 5:00 PM)
Average80 °F85%29.83 "Hg
* Reported Jan 27 8:00 AM — Feb 11 8:00 AM, Iquitos, Weather by CustomWeather, © 2016

Note: Actual official high and low records may vary slightly from our data, if they occured in-between our weather recording intervals... More about our weather records

Advertising

Iquitos Weather History for the Previous 24 Hours

 ConditionsComfort  
Time TempWeatherWind HumidityBarometerVisibility
8:00 AM
Thu, Feb 11
75 °FMostly cloudy.No wind94%29.98 "HgN/A
7:00 AM73 °FMostly cloudy.2 mph94%29.95 "Hg5 mi
6:00 AM73 °FDrizzle. Mostly cloudy.2 mph94%29.95 "Hg5 mi
5:00 AM73 °FDrizzle. Mostly cloudy.3 mph94%29.92 "Hg5 mi
4:00 AM73 °FLight rain. Passing clouds.3 mph94%29.92 "Hg5 mi
3:00 AM73 °FLight rain. Passing clouds.2 mph94%29.92 "Hg5 mi
2:00 AM73 °FLight rain. Mostly cloudy.3 mph94%29.92 "Hg5 mi
1:00 AM73 °FLight rain. Mostly cloudy.No wind94%29.95 "Hg4 mi
12:00 AM73 °FLight rain. Mostly cloudy.2 mph94%29.95 "Hg4 mi
11:00 PM
Wed, Feb 10
73 °FLight rain. Mostly cloudy.5 mph94%29.98 "Hg4 mi
10:00 PM73 °FThunderstorms. Mostly cloudy.3 mph94%29.98 "Hg4 mi
9:00 PM73 °FThunderstorms. Mostly cloudy.15 mph94%29.95 "Hg1 mi
8:04 PM81 °FThundershowers. Passing clouds.3 mph89%29.89 "Hg5 mi
7:00 PM82 °FPassing clouds.3 mph84%29.86 "HgN/A
6:00 PM86 °FPassing clouds.6 mph75%29.83 "HgN/A
5:00 PM88 °FScattered clouds.8 mph70%29.80 "HgN/A
4:00 PM88 °FScattered clouds.7 mph66%29.80 "HgN/A
3:00 PM86 °FScattered clouds.8 mph70%29.83 "HgN/A
2:00 PM82 °FScattered showers. Partly sunny.9 mph79%29.89 "HgN/A
1:00 PM84 °FPartly sunny.6 mph74%29.92 "HgN/A
12:00 PM82 °FPartly sunny.8 mph79%29.95 "HgN/A
11:00 AM81 °FPartly sunny.7 mph84%29.98 "HgN/A
10:00 AM79 °FPartly sunny.6 mph89%29.98 "HgN/A
9:00 AM77 °FPartly sunny.8 mph94%29.98 "HgN/A
Weather by CustomWeather, © 2016

See weather overviewHow to use our weather pages